Location: Santa Barbara
(34.4500°N, 119.7700°W)
Time: 08:13:59
(UTC-08:00)

Cosmos 1626 Rocket - Visible Passes

Search period start: 04 December 2016 00:00
Search period end: 14 December 2016 00:00
Orbit: 604 x 630 km, 82.5° (Epoch: 04 December)

Date Brightness Start Highest point End Pass type
(mag) Time Alt. Az. Time Alt. Az. Time Alt. Az.
05 Dec 6.4 06:04:52 10° NE 06:07:24 15° ENE 06:09:56 10° ESE visible
06 Dec 5.7 06:20:37 10° NNE 06:24:26 28° ENE 06:28:12 10° SE visible
09 Dec 6.4 05:34:28 10° NE 05:37:00 15° ENE 05:39:31 10° ESE visible
10 Dec 5.7 05:50:13 10° NNE 05:54:01 28° ENE 05:57:47 10° SE visible
10 Dec 5.8 18:17:55 10° SE 18:18:07 11° SE 18:18:07 11° SE visible
10 Dec 6.6 19:55:14 10° SW 19:55:18 10° SW 19:55:18 10° SW visible
11 Dec 4.4 06:06:37 10° N 06:10:57 55° E 06:15:13 10° SSE visible
11 Dec 4.9 18:33:48 10° SSE 18:36:00 26° SE 18:36:00 26° SE visible
12 Dec 3.5 06:23:24 10° N 06:27:47 74° W 06:32:07 10° S visible
12 Dec 3.8 18:50:18 10° S 18:53:54 58° S 18:53:54 58° S visible
13 Dec 6.4 05:04:04 10° NE 05:06:36 15° ENE 05:09:06 10° ESE visible
13 Dec 5.5 17:32:59 10° ESE 17:34:18 11° E 17:34:36 11° E visible
13 Dec 4.4 19:07:17 10° SSW 19:11:36 49° W 19:11:47 48° WNW visible
